Location: Daytona Beach
(29.2106°N, 81.0231°W)
Time: 14:06:35
(UTC-04:00)

PSAT 2 - Pass Details

Date: 30 September 2021
Orbit: 299 x 724 km, 28.5° (Epoch: 18 October)

Event Time Altitude Azimuth Distance (km) Brightness Sun altitude
Rises 20:52:31 0° 259° (W) 3,054 ? -23.0°
Reaches altitude 10° 20:57:12 10° 220° (SW) 2,195 ? -24.0°
Maximum altitude 20:58:11 11° 210° (SSW) 2,168 ? -24.2°
Drops below altitude 10° 20:59:11 10° 199° (SSW) 2,208 ? -24.5°
Enters shadow 21:00:51 - 182° (S) 2,414 ? -24.8°
